Time,TemperatureF,DewpointF,PressureIn,WindDirection,WindDirectionDegrees,WindSpeedMPH,WindSpeedGustMPH,Humidity,HourlyPrecipIn,Conditions,Clouds,dailyrainin,SoftwareType,DateUTC
2013-11-01 00:14:00,77.9,73.0,30.00,ESE,115,2.0,-999.0,84,-99.99,,,0.01,weatherlink.com 1.10,2013-11-01 04:14:00,
2013-11-01 00:29:00,78.4,73.0,29.99,SSE,155,0.0,-999.0,83,-99.99,,,0.01,weatherlink.com 1.10,2013-11-01 04:29:00,
2013-11-01 00:44:00,78.7,72.0,29.99,SE,142,4.0,-999.0,81,-99.99,,,0.01,weatherlink.com 1.10,2013-11-01 04:44:00,
2013-11-01 00:59:00,78.8,73.0,29.99,SSW,198,3.0,-999.0,81,-99.99,,,0.01,weatherlink.com 1.10,2013-11-01 04:59:00,
2013-11-01 01:14:00,78.6,72.0,29.98,SE,136,1.0,-999.0,81,-99.99,,,0.01,weatherlink.com 1.10,2013-11-01 05:14:00,
2013-11-01 01:29:00,78.5,73.0,29.98,SSE,164,4.0,-999.0,82,-99.99,,,0.01,weatherlink.com 1.10,2013-11-01 05:29:00,
2013-11-01 01:44:00,78.4,73.0,29.97,SE,141,4.0,-999.0,82,-99.99,,,0.01,weatherlink.com 1.10,2013-11-01 05:44:00,
2013-11-01 01:59:00,78.3,73.0,29.97,SW,217,2.0,-999.0,83,-99.99,,,0.01,weatherlink.com 1.10,2013-11-01 05:59:00,
2013-11-01 02:14:00,78.2,73.0,29.97,SSE,156,0.0,-999.0,83,-99.99,,,0.00,weatherlink.com 1.10,2013-11-01 06:14:00,
2013-11-01 02:29:00,78.0,73.0,29.96,SSE,168,0.0,-999.0,83,-99.99,,,0.00,weatherlink.com 1.10,2013-11-01 06:29:00,
2013-11-01 02:45:00,77.8,73.0,29.96,SE,144,4.0,-999.0,84,-99.99,,,0.00,weatherlink.com 1.10,2013-11-01 06:45:00,
2013-11-01 03:00:00,77.7,73.0,29.96,SE,141,4.0,-999.0,84,-99.99,,,0.00,weatherlink.com 1.10,2013-11-01 07:00:00,
2013-11-01 03:15:00,77.6,73.0,29.95,SSE,157,2.0,-999.0,84,-99.99,,,0.00,weatherlink.com 1.10,2013-11-01 07:15:00,
2013-11-01 03:30:00,77.9,72.0,29.95,SSE,163,6.0,-999.0,83,-99.99,,,0.00,weatherlink.com 1.10,2013-11-01 07:30:00,
2013-11-01 03:45:00,77.8,72.0,29.95,South,190,3.0,-999.0,83,-99.99,,,0.00,weatherlink.com 1.10,2013-11-01 07:45:00,
2013-11-01 04:00:00,77.5,72.0,29.95,South,175,2.0,-999.0,84,-99.99,,,0.00,weatherlink.com 1.10,2013-11-01 08:00:00,
2013-11-01 04:30:00,77.2,72.0,29.94,SSW,199,1.0,-999.0,84,-99.99,,,0.00,weatherlink.com 1.10,2013-11-01 08:30:00,
2013-11-01 04:45:00,76.8,72.0,29.94,SE,137,0.0,-999.0,85,-99.99,,,0.00,weatherlink.com 1.10,2013-11-01 08:45:00,
2013-11-01 05:00:00,76.6,72.0,29.95,SE,140,0.0,-999.0,86,-99.99,,,0.00,weatherlink.com 1.10,2013-11-01 09:00:00,
2013-11-01 05:15:00,76.3,72.0,29.95,SSE,161,0.0,-999.0,87,-99.99,,,0.00,weatherlink.com 1.10,2013-11-01 09:15:00,
2013-11-01 05:30:00,76.2,72.0,29.95,SSE,153,0.0,-999.0,87,-99.99,,,0.00,weatherlink.com 1.10,2013-11-01 09:30:00,
2013-11-01 05:45:00,76.0,72.0,29.95,SE,136,0.0,-999.0,87,-99.99,,,0.00,weatherlink.com 1.10,2013-11-01 09:45:00,
2013-11-01 06:00:00,75.7,72.0,29.95,SSE,163,0.0,-999.0,88,-99.99,,,0.00,weatherlink.com 1.10,2013-11-01 10:00:00,
2013-11-01 06:15:00,75.3,72.0,29.95,South,172,0.0,-999.0,88,-99.99,,,0.00,weatherlink.com 1.10,2013-11-01 10:15:00,
2013-11-01 06:30:00,75.1,72.0,29.95,SSE,164,0.0,-999.0,89,-99.99,,,0.00,weatherlink.com 1.10,2013-11-01 10:30:00,
2013-11-01 06:45:00,75.1,72.0,29.95,SSE,159,0.0,-999.0,89,-99.99,,,0.00,weatherlink.com 1.10,2013-11-01 10:45:00,
2013-11-01 07:00:00,74.9,72.0,29.96,SSE,157,0.0,-999.0,89,-99.99,,,0.00,weatherlink.com 1.10,2013-11-01 11:00:00,
2013-11-01 07:15:00,74.5,71.0,29.97,SSE,157,0.0,-999.0,89,-99.99,,,0.00,weatherlink.com 1.10,2013-11-01 11:15:00,
2013-11-01 07:30:00,74.7,71.0,29.97,SSE,153,0.0,-999.0,89,-99.99,,,0.00,weatherlink.com 1.10,2013-11-01 11:30:00,
2013-11-01 07:45:00,75.3,72.0,29.97,SSW,207,2.0,-999.0,88,-99.99,,,0.00,weatherlink.com 1.10,2013-11-01 11:45:00,
2013-11-01 08:00:00,76.3,72.0,29.98,SSE,168,0.0,-999.0,87,-99.99,,,0.00,weatherlink.com 1.10,2013-11-01 12:00:00,
2013-11-01 08:15:00,78.1,73.0,29.98,SSE,148,0.0,-999.0,84,-99.99,,,0.00,weatherlink.com 1.10,2013-11-01 12:15:00,
2013-11-01 08:30:00,79.6,73.0,29.99,SSW,198,0.0,-999.0,81,-99.99,,,0.00,weatherlink.com 1.10,2013-11-01 12:30:00,
2013-11-01 08:45:00,81.2,74.0,29.99,SSE,160,1.0,-999.0,78,-99.99,,,0.00,weatherlink.com 1.10,2013-11-01 12:45:00,
2013-11-01 09:00:00,81.8,74.0,29.99,SSW,200,0.0,-999.0,78,-99.99,,,0.00,weatherlink.com 1.10,2013-11-01 13:00:00,
2013-11-01 09:15:00,82.4,75.0,29.99,SSE,167,2.0,-999.0,77,-99.99,,,0.00,weatherlink.com 1.10,2013-11-01 13:15:00,
2013-11-01 09:30:00,82.7,74.0,29.99,South,186,1.0,-999.0,76,-99.99,,,0.00,weatherlink.com 1.10,2013-11-01 13:30:00,
2013-11-01 09:45:00,83.0,74.0,29.99,SSW,194,2.0,-999.0,74,-99.99,,,0.00,weatherlink.com 1.10,2013-11-01 13:45:00,
2013-11-01 10:00:00,83.6,74.0,29.99,South,189,5.0,-999.0,72,-99.99,,,0.00,weatherlink.com 1.10,2013-11-01 14:00:00,
2013-11-01 10:15:00,84.3,74.0,29.99,SSW,207,3.0,-999.0,71,-99.99,,,0.00,weatherlink.com 1.10,2013-11-01 14:15:00,
2013-11-01 10:30:00,85.1,73.0,29.99,SE,144,5.0,-999.0,68,-99.99,,,0.00,weatherlink.com 1.10,2013-11-01 14:30:00,
2013-11-01 10:45:00,85.2,73.0,29.98,South,178,1.0,-999.0,67,-99.99,,,0.00,weatherlink.com 1.10,2013-11-01 14:45:00,
2013-11-01 11:00:00,85.3,74.0,29.98,SSE,164,6.0,-999.0,68,-99.99,,,0.00,weatherlink.com 1.10,2013-11-01 15:00:00,
2013-11-01 11:15:00,86.0,74.0,29.98,East,96,2.0,-999.0,67,-99.99,,,0.00,weatherlink.com 1.10,2013-11-01 15:15:00,
2013-11-01 11:30:00,85.9,75.0,29.98,SSW,195,3.0,-999.0,70,-99.99,,,0.00,weatherlink.com 1.10,2013-11-01 15:30:00,
2013-11-01 11:45:00,86.0,75.0,29.97,SE,144,7.0,-999.0,69,-99.99,,,0.00,weatherlink.com 1.10,2013-11-01 15:45:00,
2013-11-01 12:00:00,85.4,75.0,29.97,SSE,160,5.0,-999.0,71,-99.99,,,0.00,weatherlink.com 1.10,2013-11-01 16:00:00,
2013-11-01 12:16:00,86.1,75.0,29.97,SSE,160,6.0,-999.0,69,-99.99,,,0.00,weatherlink.com 1.10,2013-11-01 16:16:00,
2013-11-01 12:31:00,85.3,74.0,29.96,ESE,111,5.0,-999.0,68,-99.99,,,0.00,weatherlink.com 1.10,2013-11-01 16:31:00,
2013-11-01 12:46:00,85.2,74.0,29.95,ESE,112,2.0,-999.0,69,-99.99,,,0.00,weatherlink.com 1.10,2013-11-01 16:46:00,
2013-11-01 13:01:00,85.7,74.0,29.94,SE,144,4.0,-999.0,69,-99.99,,,0.00,weatherlink.com 1.10,2013-11-01 17:01:00,
2013-11-01 13:16:00,86.3,75.0,29.93,South,176,4.0,-999.0,68,-99.99,,,0.00,weatherlink.com 1.10,2013-11-01 17:16:00,
2013-11-01 13:31:00,86.9,75.0,29.92,SE,138,7.0,-999.0,68,-99.99,,,0.00,weatherlink.com 1.10,2013-11-01 17:31:00,
2013-11-01 13:46:00,87.5,75.0,29.92,South,178,1.0,-999.0,66,-99.99,,,0.00,weatherlink.com 1.10,2013-11-01 17:46:00,
2013-11-01 14:01:00,87.6,74.0,29.91,SE,137,7.0,-999.0,64,-99.99,,,0.00,weatherlink.com 1.10,2013-11-01 18:01:00,
2013-11-01 14:16:00,87.5,74.0,29.90,ESE,123,5.0,-999.0,65,-99.99,,,0.00,weatherlink.com 1.10,2013-11-01 18:16:00,
2013-11-01 14:31:00,88.0,74.0,29.90,SE,127,6.0,-999.0,64,-99.99,,,0.00,weatherlink.com 1.10,2013-11-01 18:31:00,
2013-11-01 14:46:00,88.1,73.0,29.89,SW,227,5.0,-999.0,62,-99.99,,,0.00,weatherlink.com 1.10,2013-11-01 18:46:00,
2013-11-01 15:01:00,87.7,75.0,29.89,SSE,152,8.0,-999.0,66,-99.99,,,0.00,weatherlink.com 1.10,2013-11-01 19:01:00,
2013-11-01 15:16:00,87.4,75.0,29.89,SW,214,6.0,-999.0,67,-99.99,,,0.00,weatherlink.com 1.10,2013-11-01 19:16:00,
2013-11-01 15:31:00,87.0,75.0,29.88,South,169,2.0,-999.0,67,-99.99,,,0.00,weatherlink.com 1.10,2013-11-01 19:31:00,
2013-11-01 15:46:00,86.5,74.0,29.89,SE,133,7.0,-999.0,67,-99.99,,,0.00,weatherlink.com 1.10,2013-11-01 19:46:00,
2013-11-01 16:01:00,86.5,74.0,29.88,SE,129,4.0,-999.0,67,-99.99,,,0.00,weatherlink.com 1.10,2013-11-01 20:01:00,
2013-11-01 16:16:00,86.6,74.0,29.88,WSW,241,5.0,-999.0,67,-99.99,,,0.00,weatherlink.com 1.10,2013-11-01 20:16:00,
2013-11-01 16:31:00,85.9,75.0,29.88,South,173,4.0,-999.0,69,-99.99,,,0.00,weatherlink.com 1.10,2013-11-01 20:31:00,
2013-11-01 16:46:00,86.0,74.0,29.87,SSE,156,6.0,-999.0,68,-99.99,,,0.00,weatherlink.com 1.10,2013-11-01 20:46:00,
2013-11-01 17:01:00,85.9,75.0,29.88,East,101,7.0,-999.0,69,-99.99,,,0.00,weatherlink.com 1.10,2013-11-01 21:01:00,
2013-11-01 17:16:00,85.3,75.0,29.88,SSE,150,5.0,-999.0,71,-99.99,,,0.00,weatherlink.com 1.10,2013-11-01 21:16:00,
2013-11-01 17:31:00,84.7,74.0,29.88,ESE,117,5.0,-999.0,70,-99.99,,,0.00,weatherlink.com 1.10,2013-11-01 21:31:00,
2013-11-01 17:46:00,83.9,74.0,29.88,South,183,0.0,-999.0,72,-99.99,,,0.00,weatherlink.com 1.10,2013-11-01 21:46:00,
2013-11-01 18:01:00,83.6,75.0,29.88,SSE,149,1.0,-999.0,74,-99.99,,,0.00,weatherlink.com 1.10,2013-11-01 22:01:00,
2013-11-01 18:16:00,82.8,74.0,29.88,SSW,204,4.0,-999.0,75,-99.99,,,0.00,weatherlink.com 1.10,2013-11-01 22:16:00,
2013-11-01 18:31:00,82.1,74.0,29.89,SSW,200,3.0,-999.0,77,-99.99,,,0.00,weatherlink.com 1.10,2013-11-01 22:31:00,
2013-11-01 18:46:00,81.6,74.0,29.89,SE,133,1.0,-999.0,78,-99.99,,,0.00,weatherlink.com 1.10,2013-11-01 22:46:00,
2013-11-01 19:01:00,81.2,74.0,29.89,South,172,2.0,-999.0,78,-99.99,,,0.00,weatherlink.com 1.10,2013-11-01 23:01:00,
2013-11-01 19:16:00,80.8,74.0,29.89,SSE,161,2.0,-999.0,79,-99.99,,,0.00,weatherlink.com 1.10,2013-11-01 23:16:00,
2013-11-01 19:31:00,80.5,74.0,29.90,South,183,2.0,-999.0,80,-99.99,,,0.00,weatherlink.com 1.10,2013-11-01 23:31:00,
2013-11-01 19:46:00,80.2,74.0,29.90,SSE,161,2.0,-999.0,80,-99.99,,,0.00,weatherlink.com 1.10,2013-11-01 23:46:00,
2013-11-01 20:01:00,79.9,74.0,29.91,South,180,2.0,-999.0,81,-99.99,,,0.00,weatherlink.com 1.10,2013-11-02 00:01:00,
2013-11-01 20:16:00,79.7,73.0,29.91,SSE,149,2.0,-999.0,80,-99.99,,,0.00,weatherlink.com 1.10,2013-11-02 00:16:00,
2013-11-01 20:31:00,79.6,73.0,29.91,SSE,150,1.0,-999.0,80,-99.99,,,0.00,weatherlink.com 1.10,2013-11-02 00:31:00,
2013-11-01 20:46:00,79.3,73.0,29.91,South,176,2.0,-999.0,81,-99.99,,,0.00,weatherlink.com 1.10,2013-11-02 00:46:00,
2013-11-01 21:01:00,79.1,73.0,29.92,SE,136,1.0,-999.0,81,-99.99,,,0.00,weatherlink.com 1.10,2013-11-02 01:01:00,
2013-11-01 21:16:00,79.0,73.0,29.92,South,183,1.0,-999.0,81,-99.99,,,0.00,weatherlink.com 1.10,2013-11-02 01:16:00,
2013-11-01 21:31:00,78.8,73.0,29.92,SE,128,2.0,-999.0,82,-99.99,,,0.00,weatherlink.com 1.10,2013-11-02 01:31:00,
2013-11-01 21:46:00,78.6,73.0,29.92,South,186,0.0,-999.0,82,-99.99,,,0.00,weatherlink.com 1.10,2013-11-02 01:46:00,
2013-11-01 22:01:00,78.5,73.0,29.92,SSE,159,0.0,-999.0,82,-99.99,,,0.00,weatherlink.com 1.10,2013-11-02 02:01:00,
2013-11-01 22:16:00,78.4,73.0,29.93,SE,138,1.0,-999.0,82,-99.99,,,0.00,weatherlink.com 1.10,2013-11-02 02:16:00,
2013-11-01 22:31:00,78.1,73.0,29.93,South,182,0.0,-999.0,83,-99.99,,,0.00,weatherlink.com 1.10,2013-11-02 02:31:00,
2013-11-01 22:46:00,77.5,72.0,29.93,SW,229,0.0,-999.0,84,-99.99,,,0.00,weatherlink.com 1.10,2013-11-02 02:46:00,
2013-11-01 23:01:00,77.1,72.0,29.93,SSW,195,0.0,-999.0,85,-99.99,,,0.00,weatherlink.com 1.10,2013-11-02 03:01:00,
2013-11-01 23:16:00,76.9,73.0,29.93,South,175,0.0,-999.0,86,-99.99,,,0.00,weatherlink.com 1.10,2013-11-02 03:16:00,
2013-11-01 23:31:00,76.6,73.0,29.93,SW,236,0.0,-999.0,87,-99.99,,,0.00,weatherlink.com 1.10,2013-11-02 03:31:00,
2013-11-01 23:46:00,76.3,72.0,29.93,SSW,192,0.0,-999.0,87,-99.99,,,0.00,weatherlink.com 1.10,2013-11-02 03:46:00,